Regional Weather Roundup
Issued by NWS

Home | Current Version | Previous Version | Graphics & Text | Print | Product List | Glossary On
Versions: 1 2 3 4 5 6 7 8 9 10 11 12 13 14 15 16 17 18 19 20 21 22 23 24 25 26 27 28
000
ASUS45 KPSR 020910
RWRAZ

ARIZONA HOURLY REGIONAL WEATHER ROUNDUP
NATIONAL WEATHER SERVICE PHOENIX AZ
200 AM MST MON MAY 02 2016

NOTE: FAIR INDICATES FEW OR NO CLOUDS BELOW 12,000 FEET WITH NO
SIGNIFICANT WEATHER AND/OR OBSTRUCTIONS TO VISIBILITY.

AZZ001>003-036-021000-
NORTHWEST ARIZONA

CITY           SKY/WX    TMP DP  RH WIND       PRES   REMARKS
BULLHEAD CITY  CLEAR     68  43  40 SE3       29.97S
KINGMAN        CLEAR     54  32  43 SE14      30.05S
$$

AZZ004>008-015-016-018-021000-
NORTH CENTRAL ARIZONA

CITY           SKY/WX    TMP DP  RH WIND       PRES   REMARKS
GRAND CANYON   CLEAR     37  31  78 CALM      30.17S
WILLIAMS       CLEAR     36  34  93 S8        30.23S WCI  29
PRESCOTT       CLEAR     40  38  93 CALM      30.10F
FLAGSTAFF      MOCLDY    30  29  96 CALM      30.16F FOG
PAYSON         CLEAR     43  37  81 CALM      30.12S
PAGE           CLOUDY    51  42  71 CALM      30.13S
$$

AZZ009>014-017-021000-
NORTHEAST ARIZONA

CITY           SKY/WX    TMP DP  RH WIND       PRES   REMARKS
WINSLOW        CLEAR     39  38  96 W5        30.14S
SAINT JOHNS    CLEAR     37  34  89 E6        30.15S WCI  32
WINDOW ROCK    MOCLDY    34  31  88 CALM      30.19F
SHOW LOW       CLEAR     32  32 100 CALM      30.15F
$$

AZZ023-021000-
GREATER PHOENIX AREA

CITY           SKY/WX    TMP DP  RH WIND       PRES   REMARKS
PHOENIX        CLEAR     66  41  40 CALM      29.93S
BUCKEYE        CLEAR     57  39  51 N6        29.95F
LUKE AFB       CLEAR     62  44  51 N7        29.94S
DEER VALLEY    CLEAR     62  39  42 CALM      29.95S
SCOTTSDALE     CLEAR     63  41  44 W3        29.96S
MESA-GATEWAY   CLEAR     55  37  50 CALM      29.96S
$$

AZZ027-028-021000-
SOUTHWEST MARICOPA COUNTY AND PINAL COUNTY

CITY           SKY/WX    TMP DP  RH WIND       PRES   REMARKS
CASA GRANDE    CLEAR     57  34  41 CALM      29.97S
GILA BEND      FAIR      62  41  46 VRB3      29.91F
$$

AZZ503-504-507>509-021000-
SOUTHEAST ARIZONA

CITY           SKY/WX    TMP DP  RH WIND       PRES   REMARKS
TUCSON         CLEAR     57  34  41 SE5       30.00F
DAVIS-MONTHAN  CLEAR     56  35  45 SE7       29.98F
NOGALES        CLEAR     48  32  53 E6        30.02F
SIERRA VISTA   CLEAR     51  32  48 SW5       30.07F
DOUGLAS        CLEAR     47  27  45 NW5       30.04F
SAFFORD        CLEAR     57  34  41 SE12      30.05R
$$

AZZ020-021-025-026-031-021000-
SOUTHWEST ARIZONA

CITY           SKY/WX    TMP DP  RH WIND       PRES   REMARKS
YUMA           CLEAR     69  50  50 E3        29.91S
$$

CAZ031-033-041-043-047-048-061-021000-
SOUTHERN CALIFORNIA

CITY           SKY/WX    TMP DP  RH WIND       PRES   REMARKS
DOWNTOWN L.A.  PTCLDY    58  53  84 CALM      30.00F
L.A. AIRPORT   PTCLDY    58  52  80 CALM      30.01S
SAN DIEGO      MOCLDY    60  51  72 CALM      30.02F
BURBANK        CLOUDY    57  51  80 CALM      29.99F
ONTARIO        PTCLDY    55  50  83 NW6       30.00F
RIVERSIDE      CLEAR     56  51  84 W3        30.01F
PALM SPRINGS   CLEAR     68  51  54 NW13      29.94S
EL CENTRO NAS  CLEAR    N/A N/A N/A NW3       29.91S
IMPERIAL       CLEAR     69  43  38 CALM      29.89S
BLYTHE         CLEAR     64  40  41 E7        29.91S
NEEDLES        CLEAR     67  46  47 NW5       29.94S
$$

NVZ020-UTZ003-021000-
SOUTHERN NEVADA-UTAH

CITY           SKY/WX    TMP DP  RH WIND       PRES   REMARKS
LAS VEGAS      PTCLDY    61  43  51 SW6       29.96S
SALT LAKE CITY PTCLDY    50  28  42 SE9       30.12S
$$

NMZ009-TXZ055-021000-
NEW MEXICO-WEST TEXAS

CITY           SKY/WX    TMP DP  RH WIND       PRES   REMARKS
ALBUQUERQUE    PTCLDY    39  30  70 E15       30.25S WCI  31
EL PASO        CLEAR     46  35  65 NE8       30.19S
$$


........................KEY........................
SKY/WX - SKY CONDITION/WEATHER
TMP    - TEMPERATURE IN FAHRENHEIT
DP     - DEW POINT IN FAHRENHEIT
RH     - RELATIVE HUMIDITY IN PERCENT
WIND   - DIRECTION AND SPEED IN MILES PER HOUR (MPH)
VRB    - VARIABLE WIND DIRECTION
PRES   - MEAN SEA LEVEL PRESSURE IN INCHES OF MERCURY
         F - FALLING PRESSURE   R - RISING PRESSURE
         S - STEADY PRESSURE
VSB    - VISIBILITY IN MILES
HX     - HEAT INDEX IN FAHRENHEIT
WCI    - WIND CHILL INDEX IN FAHRENHEIT
TC     - TEMPERATURE IN CELSIUS WHICH IS ALSO KNOWN AS
         TEMPERATURE IN CENTIGRADE
AFB    - AIR FORCE BASE
         LUKE AFB IS LUKE AIR FORCE BASE
         DAVIS-MONTHAN IS DAVIS-MONTHAN AIR FORCE BASE
NAS    - NAVAL AIR STATION
         EL CENTRO NAS IS EL CENTRO NAVAL AIR STATION
N/A    - NOT AVAILABLE





USA.gov is the U.S. government's official web portal to all federal, state and local government web resources and services.